Date,TemperatureHighF,TemperatureAvgF,TemperatureLowF,DewpointHighF,DewpointAvgF,DewpointLowF,HumidityHigh,HumidityAvg,HumidityLow,PressureMaxIn,PressureMinIn,WindSpeedMaxMPH,WindSpeedAvgMPH,GustSpeedMaxMPH,PrecipitationSumIn
2014-4-1,75.5,58.6,48.4,49.0,46.2,42.0,83,65,35,29.77,29.70,8,2,0,0.00
2014-4-2,71.9,57.4,46.0,54.0,47.5,42.0,89,71,46,29.71,29.53,9,1,0,0.00
2014-4-3,73.2,58.8,48.2,53.0,47.4,45.0,89,69,37,29.55,29.47,7,1,0,0.00
2014-4-4,57.9,55.8,52.8,50.0,48.7,47.0,81,77,73,29.77,29.55,9,2,0,0.00
2014-4-5,66.8,55.8,50.1,49.0,45.5,39.0,87,71,37,29.91,29.77,11,2,0,0.00
2014-4-6,63.6,56.6,48.2,55.0,49.8,42.0,86,78,71,29.91,29.86,18,5,0,0.01
2014-4-7,72.2,60.9,55.9,56.0,53.2,51.0,92,77,49,29.90,29.63,14,5,0,0.22
2014-4-8,56.4,49.6,44.0,55.0,43.2,37.0,94,80,51,30.09,29.59,24,8,0,0.19
2014-4-9,59.8,50.8,43.8,44.0,41.4,39.0,87,72,49,30.16,30.09,15,6,0,0.19
2014-4-10,61.4,54.6,50.3,49.0,45.9,43.0,85,73,57,30.13,30.01,13,4,0,0.00
2014-4-11,59.8,53.0,47.8,46.0,43.7,39.0,86,72,51,30.04,29.96,11,2,0,0.00
2014-4-12,59.5,50.6,39.5,44.0,40.9,36.0,93,71,51,30.04,29.89,14,3,0,0.00
2014-4-13,56.6,51.6,48.4,45.0,40.7,37.0,84,68,49,30.04,29.93,14,5,0,0.00
2014-4-14,52.8,49.4,43.5,45.0,38.8,34.0,83,68,51,30.15,29.88,20,10,0,0.03
2014-4-15,53.8,45.9,41.2,37.0,35.3,34.0,80,68,47,30.30,30.16,14,3,0,0.03
2014-4-16,69.5,49.6,35.2,38.0,34.1,31.0,89,60,26,30.34,30.19,10,2,0,0.00
2014-4-17,65.2,52.5,42.4,47.0,36.7,31.0,88,58,29,30.19,29.86,16,5,0,0.03
2014-4-18,53.2,48.5,44.4,45.0,38.8,35.0,85,70,57,29.95,29.84,17,5,0,0.01
2014-4-19,66.5,51.6,43.5,44.0,41.1,37.0,90,70,40,29.99,29.82,13,3,0,0.02
2014-4-20,72.4,59.0,49.1,50.0,46.9,44.0,85,66,42,29.82,29.54,17,4,0,0.02
2014-4-21,62.2,55.5,47.8,50.0,46.5,42.0,86,72,60,29.61,29.52,10,2,0,0.00
2014-4-22,71.4,58.4,51.5,51.0,47.4,44.0,90,70,39,29.88,29.57,11,2,0,0.00
2014-4-23,75.9,61.8,53.5,50.0,45.2,-99.9,84,59,36,30.00,29.88,8,-19,0,0.00
2014-4-24,69.0,58.3,50.9,53.0,50.1,47.0,89,75,53,30.02,29.88,8,2,0,0.00
2014-4-25,80.6,63.2,53.5,57.0,52.4,48.0,88,70,33,29.87,29.66,14,4,0,0.02
2014-4-26,68.3,59.5,50.9,52.0,46.7,43.0,84,65,44,29.77,29.66,13,3,0,0.02
2014-4-27,66.8,57.0,52.2,50.0,48.2,47.0,83,73,52,29.67,29.59,8,1,0,0.02
2014-4-28,68.7,57.3,47.9,52.0,48.3,44.0,91,73,49,29.80,29.67,8,1,0,0.00
2014-4-29,61.7,57.0,53.7,54.0,50.9,48.0,89,81,65,29.80,29.76,10,1,0,0.01
2014-4-30,61.9,55.1,51.8,53.0,50.4,48.0,96,84,70,29.79,29.74,11,2,0,0.01